Abingdon, VA

4:58 PM EDT on June 24, 2017 (GMT -0400)
Virginia Highlands

Weather History for KVJI - May, 2013

Change the Weather History Date:

Monday, May 6, 2013

  Actual Average (KTRI) Record (KTRI)
Temperature  
Mean Temperature 59 °F -  
Max Temperature 65 °F 73 °F 88 °F (1949)
Min Temperature 53 °F 47 °F 35 °F (1954)
Degree Days  
Heating Degree Days 6    
Growing Degree Days 9 (Base 50)    
Moisture  
Dew Point 54 °F    
Average Humidity 90    
Maximum Humidity 100    
Minimum Humidity 63    
Precipitation  
Precipitation 0.27 in - - ()
Sea Level Pressure  
Sea Level Pressure 29.86 in    
Wind  
Wind Speed 12 mph (ESE)    
Max Wind Speed 20 mph    
Max Gust Speed 26 mph    
Visibility 10 miles    
Events Rain , Thunderstorm    
Averages and records for this station are not official NWS values.
T = Trace of Precipitation, MM = Missing Value Source: NWS Daily Summary

Daily Weather History Graph

Daily Weather History Graph

Search for Another Location

Airport or City:

Trip Planner

Search our weather history database for the weather conditions in past years. The results will help you decide how hot, cold, wet, or windy it might be!

Date:

Astronomy

May. 06, 2013 Rise Set
Actual Time 6:28 AM EDT 8:21 PM EDT
Civil Twilight 6:00 AM EDT 8:49 PM EDT
Nautical Twilight 5:26 AM EDT 9:23 PM EDT
Astronomical Twilight 4:50 AM EDT 10:00 PM EDT
Moon 4:25 AM EDT (5/6) 5:24 PM EDT (5/6)
Length of Visible Light 14h 48m
Length of Day
13h 52m
Waning Crescent, 11% of the Moon is Illuminated
May 6
Waning Crescent
May 9
New
May 18
First Quarter
May 25
Full
May 31
Last Quarter

Hourly Weather History & Observations

Time (EDT) Temp. Dew Point Humidity Pressure Visibility Wind Dir Wind Speed Gust Speed Precip Events Conditions
12:15 AM 55.4 °F 52.7 °F 91% 29.83 in 10.0 mi SE 19.6 mph 26.5 mph 0.01 in   Mostly Cloudy
12:35 AM 56.1 °F 52.7 °F 88% 29.84 in 10.0 mi SE 18.4 mph 26.5 mph 0.01 in   Mostly Cloudy
12:55 AM 55.4 °F 52.7 °F 91% 29.85 in 10.0 mi ESE 17.3 mph 23.0 mph 0.01 in Rain Light Rain
1:15 AM 54.5 °F 53.2 °F 96% 29.85 in 10.0 mi ESE 13.8 mph 21.9 mph 0.01 in Rain Light Rain
1:35 AM 54.7 °F 53.2 °F 95% 29.83 in 10.0 mi ESE 16.1 mph 25.3 mph 0.02 in Rain Light Rain
1:55 AM 55.0 °F 53.2 °F 94% 29.82 in 10.0 mi ESE 16.1 mph 23.0 mph 0.02 in Rain Light Rain
2:15 AM 54.5 °F 53.6 °F 97% 29.82 in 10.0 mi ESE 13.8 mph 21.9 mph N/A   Light Drizzle
2:35 AM 54.9 °F 53.6 °F 96% 29.82 in 10.0 mi ESE 15.0 mph 18.4 mph N/A   Overcast
2:55 AM 55.6 °F 53.6 °F 93% 29.81 in 10.0 mi East 18.4 mph 25.3 mph N/A   Overcast
3:15 AM 56.1 °F 53.6 °F 91% 29.82 in 10.0 mi ESE 13.8 mph - 0.01 in Rain Light Rain
3:35 AM 56.3 °F 53.6 °F 91% 29.83 in 10.0 mi ESE 11.5 mph 17.3 mph 0.01 in Rain Rain
3:55 AM 55.6 °F 54.0 °F 94% 29.84 in 7.0 mi SE 5.8 mph - 0.02 in Rain Rain
4:15 AM 54.9 °F 54.5 °F 99% 29.85 in 7.0 mi East 8.1 mph - 0.02 in Rain Light Rain
4:35 AM 54.5 °F 54.5 °F 100% 29.84 in 10.0 mi East 8.1 mph - 0.03 in Rain Rain
4:55 AM 54.5 °F 54.5 °F 100% 29.84 in 10.0 mi East 8.1 mph - 0.05 in Rain Rain
5:15 AM 54.5 °F 54.5 °F 100% 29.83 in 10.0 mi East 4.6 mph - 0.02 in Rain Light Rain
5:35 AM 54.5 °F 54.5 °F 100% 29.84 in 7.0 mi East 6.9 mph - 0.03 in Rain Light Rain
5:55 AM 54.0 °F 54.0 °F 100% 29.83 in 5.0 mi East 8.1 mph - 0.07 in Rain Light Rain
6:15 AM 54.0 °F 54.0 °F 100% 29.84 in 10.0 mi East 9.2 mph - 0.01 in   Overcast
6:55 AM 54.0 °F 54.0 °F 100% 29.85 in 7.0 mi East 9.2 mph - 0.03 in Rain Light Rain
7:15 AM 54.3 °F 54.3 °F 100% 29.85 in 10.0 mi East 8.1 mph - N/A Rain Light Rain
7:35 AM 54.5 °F 54.5 °F 100% 29.85 in 10.0 mi ESE 9.2 mph - N/A Rain Light Rain
7:55 AM 54.5 °F 54.5 °F 100% 29.85 in 10.0 mi East 11.5 mph - 0.02 in Rain Light Rain
8:15 AM 54.5 °F 54.5 °F 100% 29.86 in 10.0 mi East 8.1 mph - N/A   Overcast
8:35 AM 54.5 °F 54.5 °F 100% 29.87 in 10.0 mi ESE 6.9 mph - N/A Rain Light Rain
8:55 AM 54.5 °F 54.5 °F 100% 29.88 in 10.0 mi ESE 8.1 mph - 0.01 in Rain Light Rain
9:15 AM 54.5 °F 54.5 °F 100% 29.88 in 10.0 mi East 10.4 mph - N/A   Light Drizzle
9:35 AM 54.7 °F 54.7 °F 100% 29.88 in 10.0 mi East 10.4 mph - N/A   Overcast
9:55 AM 55.4 °F 55.4 °F 100% 29.89 in 10.0 mi East 9.2 mph - N/A   Light Drizzle
10:15 AM 55.6 °F 55.6 °F 100% 29.88 in 10.0 mi East 8.1 mph - 0.01 in Rain Light Rain
10:35 AM 56.3 °F 56.1 °F 99% 29.89 in 10.0 mi East 9.2 mph - 0.01 in Rain Light Rain
10:55 AM 57.2 °F 57.0 °F 99% 29.89 in 10.0 mi East 10.4 mph - 0.01 in   Overcast
11:15 AM 57.7 °F 56.3 °F 95% 29.89 in 10.0 mi East 9.2 mph - N/A   Overcast
11:35 AM 58.1 °F 56.5 °F 94% 29.89 in 10.0 mi East 10.4 mph - N/A   Overcast
11:55 AM 60.8 °F 58.3 °F 91% 29.88 in 10.0 mi ESE 12.7 mph - N/A   Mostly Cloudy
12:15 PM 62.1 °F 58.1 °F 87% 29.86 in 10.0 mi East 15.0 mph - N/A   Scattered Clouds
12:35 PM 62.6 °F 56.5 °F 80% 29.87 in 10.0 mi SE 13.8 mph 19.6 mph N/A   Mostly Cloudy
12:55 PM 63.5 °F 56.8 °F 79% 29.86 in 10.0 mi ESE 10.4 mph - N/A   Overcast
1:15 PM 65.7 °F 55.9 °F 71% 29.85 in 7.0 mi ESE 11.5 mph 17.3 mph N/A   Mostly Cloudy
1:35 PM 64.0 °F 53.8 °F 69% 29.85 in 10.0 mi SE 9.2 mph - N/A   Mostly Cloudy
1:55 PM 64.8 °F 52.0 °F 63% 29.85 in 10.0 mi SE 12.7 mph 19.6 mph N/A   Overcast
2:15 PM 64.9 °F 54.7 °F 69% 29.84 in 10.0 mi East 12.7 mph - N/A   Overcast
2:35 PM 63.3 °F 54.3 °F 72% 29.84 in 10.0 mi East 8.1 mph 17.3 mph N/A Rain Light Rain
2:55 PM 61.0 °F 53.4 °F 76% 29.85 in 10.0 mi South 3.5 mph - 0.02 in   Overcast
3:15 PM 61.9 °F 54.0 °F 75% 29.85 in 10.0 mi West 4.6 mph - N/A   Overcast
3:35 PM 64.0 °F 55.4 °F 73% 29.84 in 10.0 mi WNW 3.5 mph - N/A   Mostly Cloudy
3:55 PM 63.0 °F 53.2 °F 71% 29.83 in 10.0 mi West 8.1 mph - N/A   Mostly Cloudy
4:15 PM 62.1 °F 52.5 °F 71% 29.84 in 10.0 mi SE 3.5 mph - N/A Rain Light Rain
4:35 PM 61.2 °F 54.3 °F 78% 29.84 in 10.0 mi East 3.5 mph - 0.01 in Rain Light Rain
4:55 PM 61.0 °F 56.7 °F 86% 29.84 in 10.0 mi East 9.2 mph - 0.01 in   Overcast
5:15 PM 61.7 °F 56.1 °F 82% 29.84 in 10.0 mi East 6.9 mph - N/A   Scattered Clouds
5:35 PM 61.9 °F 55.6 °F 80% 29.83 in 10.0 mi East 9.2 mph - N/A   Mostly Cloudy
5:55 PM 61.3 °F 57.0 °F 86% 29.83 in 10.0 mi ESE 15.0 mph - N/A   Mostly Cloudy
6:15 PM 60.3 °F 56.5 °F 87% 29.84 in 10.0 mi East 11.5 mph - N/A   Clear
6:55 PM 59.7 °F 55.8 °F 87% 29.83 in 10.0 mi ENE 8.1 mph - N/A   Clear
7:15 PM 59.5 °F 54.9 °F 84% 29.83 in 10.0 mi East 11.5 mph - N/A   Clear
7:35 PM 59.0 °F 54.9 °F 86% 29.84 in 10.0 mi East 12.7 mph - N/A   Clear
7:55 PM 58.5 °F 54.1 °F 86% 29.84 in 10.0 mi ESE 13.8 mph - N/A   Clear
8:15 PM 57.7 °F 53.8 °F 87% 29.85 in 10.0 mi ESE 11.5 mph - N/A   Clear
8:35 PM 56.8 °F 53.6 °F 89% 29.86 in 10.0 mi East 8.1 mph - N/A   Clear
8:55 PM 56.3 °F 53.2 °F 89% 29.87 in 10.0 mi ESE 6.9 mph - N/A Thunderstorm Clear
9:15 PM 55.4 °F 53.2 °F 92% 29.88 in 10.0 mi East 10.4 mph - N/A   Clear
9:35 PM 54.1 °F 52.5 °F 94% 29.89 in 10.0 mi East 4.6 mph - N/A   Clear
9:55 PM 55.4 °F 52.9 °F 91% 29.91 in 10.0 mi Calm Calm - N/A   Scattered Clouds
10:15 PM 53.6 °F 52.5 °F 96% 29.92 in 10.0 mi Calm Calm - N/A   Mostly Cloudy
10:35 PM 53.8 °F 52.3 °F 95% 29.92 in 10.0 mi Calm Calm - N/A   Overcast
10:55 PM 54.7 °F 52.7 °F 93% 29.93 in 10.0 mi Calm Calm - N/A   Overcast
11:15 PM 55.0 °F 53.6 °F 95% 29.92 in 10.0 mi Calm Calm - N/A   Overcast
11:35 PM 54.5 °F 52.7 °F 94% 29.93 in 10.0 mi Calm Calm - N/A   Mostly Cloudy
11:55 PM 54.1 °F 52.5 °F 94% 29.92 in 10.0 mi Calm Calm - N/A   Scattered Clouds